EW8576 Weather Reports


Display with metric or nautical units.
time (UTC)temp
F
wind
direction
speed
MPH
gust
MPH
rain 1hr
in
rain 24hr
in
rain mn
in
humidity
%
barometer
mb
20260507012627 58 56 2.0 6.0 0.00 0.00 0.00 1 1006.5
20260507011908 58 76 3.0 9.0 0.00 0.00 0.00 1 1006.5
20260507011408 58 38 2.0 9.0 0.00 0.00 0.00 1 1006.4
20260507010909 59 88 1.0 8.0 0.00 0.00 0.00 1 1006.4
20260507010409 59 84 0.0 6.0 0.00 0.00 0.00 1 1006.3
20260507005910 59 82 0.0 2.0 0.00 0.00 0.00 1 1006.1
20260507005409 59 82 0.0 2.0 0.00 0.00 0.00 1 1005.7
20260507004908 59 82 0.0 2.0 0.00 0.00 0.00 1 1005.5
20260507004408 60 80 1.0 6.0 0.00 0.00 0.00 1 1005.3
20260507003904 60 9 0.0 6.0 0.00 0.00 0.00 1 1005.1
20260507003404 60 15 0.0 4.0 0.00 0.00 0.00 1 1005.0
20260507002905 60 281 1.0 5.0 0.00 0.00 0.00 1 1005.2
20260507002405 60 284 1.0 5.0 0.00 0.00 0.00 1 1005.2
20260507001905 60 271 1.0 4.0 0.00 0.00 0.00 1 1005.1
20260507001405 60 270 1.0 4.0 0.00 0.00 0.00 1 1005.0
20260507000904 60 288 1.0 4.0 0.00 0.00 0.00 1 1004.9
20260507000405 61 254 1.0 4.0 0.00 0.00 0.00 1 1004.7
20260506235906 61 249 1.0 4.0 0.00 0.00 0.00 1 1004.6
20260506235405 61 249 1.0 5.0 0.00 0.00 0.00 1 1004.5
20260506234904 61 253 2.0 6.0 0.00 0.00 0.00 1 1004.5
20260506234404 61 254 1.0 6.0 0.00 0.00 0.00 1 1004.4
20260506233904 62 292 0.0 4.0 0.00 0.00 0.00 1 1004.4
20260506233405 62 246 0.0 2.0 0.00 0.00 0.00 1 1004.3
20260506232905 62 246 0.0 2.0 0.00 0.00 0.00 1 1004.1
20260506232405 62 248 0.0 3.0 0.00 0.00 0.00 1 1004.0
20260506231904 62 250 1.0 4.0 0.00 0.00 0.00 1 1004.1
20260506231404 62 221 1.0 4.0 0.00 0.00 0.00 1 1003.9
20260506230902 62 248 1.0 2.0 0.00 0.00 0.00 1 1003.8
20260506230403 62 248 1.0 7.0 0.00 0.00 0.00 1 1003.8
20260506225900 62 248 1.0 7.0 0.00 0.00 0.00 1 1003.9
20260506225621 62 216 1.0 6.0 0.00 0.00 0.00 1 1003.9
20260506224858 62 200 1.0 10.0 0.00 0.00 0.00 1 1003.8
20260506224627 62 257 2.0 10.0 0.00 0.00 0.00 1 1003.7
20260506223858 62 237 2.0 8.0 0.00 0.00 0.00 1 1003.5
20260506223359 62 248 2.0 8.0 0.00 0.00 0.00 1 1003.5
20260506222859 62 231 1.0 8.0 0.00 0.00 0.00 1 1003.5
20260506222357 62 248 1.0 8.0 0.00 0.00 0.00 1 1003.5
20260506222120 62 242 1.0 6.0 0.00 0.00 0.00 1 1003.4
20260506221617 62 229 1.0 6.0 0.00 0.00 0.00 1 1003.3
20260506220854 62 229 1.0 6.0 0.00 0.00 0.00 1 1003.3
20260506220352 62 229 1.0 6.0 0.00 0.00 0.00 1 1003.3
20260506215853 62 227 1.0 6.0 0.00 0.00 0.00 1 1003.3
20260506215606 62 227 1.0 6.0 0.00 0.00 0.00 1 1003.3
20260506214840 62 225 0.0 2.0 0.00 0.00 0.00 1 1003.3
20260506214337 62 254 0.0 4.0 0.00 0.00 0.00 1 1003.2
20260506213837 62 254 0.0 4.0 0.00 0.00 0.00 1 1003.3
20260506213336 62 253 1.0 5.0 0.00 0.00 0.00 1 1003.2
20260506212836 62 242 1.0 6.0 0.00 0.00 0.00 1 1003.1
20260506212600 62 240 2.0 8.0 0.00 0.00 0.00 1 1003.2
20260506211836 62 238 1.0 8.0 0.00 0.00 0.00 1 1003.1
20260506211336 63 235 2.0 10.0 0.00 0.00 0.00 1 1003.1
20260506211053 63 234 4.0 10.0 0.00 0.00 0.00 1 1003.0
20260506210334 63 242 3.0 7.0 0.00 0.00 0.00 1 1003.0
20260506205835 63 229 4.0 7.0 0.00 0.00 0.00 1 1003.1
20260506205333 63 242 3.0 8.0 0.00 0.00 0.00 1 1003.1
20260506204833 63 243 3.0 8.0 0.00 0.00 0.00 1 1003.0
20260506204333 63 246 4.0 9.0 0.00 0.00 0.00 1 1003.0
20260506203832 63 235 4.0 9.0 0.00 0.00 0.00 1 1003.0
20260506203332 63 248 4.0 10.0 0.00 0.00 0.00 1 1003.0
20260506202833 62 246 5.0 13.0 0.00 0.00 0.00 1 1002.9
20260506202333 62 246 4.0 13.0 0.00 0.00 0.00 1 1003.1
20260506201832 62 241 4.0 11.0 0.00 0.00 0.00 1 1003.1
20260506201325 62 244 5.0 10.0 0.00 0.00 0.00 1 1003.2
20260506200818 62 226 5.0 10.0 0.00 0.00 0.00 1 1003.2
20260506200312 62 257 5.0 14.0 0.00 0.00 0.00 1 1003.3
20260506200033 62 242 5.0 14.0 0.00 0.00 0.00 1 1003.4
20260506195259 62 214 6.0 12.0 0.00 0.00 0.00 1 1003.5
20260506194754 62 229 5.0 12.0 0.00 0.00 0.00 1 1003.5
20260506194731 62 240 5.0 11.0 0.00 0.00 0.00 1 1003.5
20260506193742 62 238 5.0 10.0 0.00 0.00 0.00 1 1003.5
20260506193236 62 263 3.0 9.0 0.00 0.00 0.00 1 1003.6
20260506192730 62 248 4.0 9.0 0.00 0.00 0.00 1 1003.7
20260506192223 62 247 4.0 12.0 0.00 0.00 0.00 1 1003.6
20260506191718 62 260 4.0 12.0 0.00 0.00 0.00 1 1003.6
20260506191212 62 249 5.0 12.0 0.00 0.00 0.00 1 1003.8
20260506190706 62 238 3.0 12.0 0.00 0.00 0.00 1 1003.7
20260506190200 62 254 1.0 9.0 0.00 0.00 0.00 1 1003.9
20260506185654 62 227 3.0 9.0 0.00 0.00 0.00 1 1003.9
20260506185419 62 245 5.0 9.0 0.00 0.00 0.00 1 1003.9
20260506184642 62 248 4.0 10.0 0.00 0.00 0.00 1 1004.0
20260506184136 62 225 3.0 9.0 0.00 0.00 0.00 1 1004.1
20260506183630 62 223 4.0 10.0 0.00 0.00 0.00 1 1004.1
20260506183124 62 223 5.0 11.0 0.00 0.00 0.00 1 1004.2
20260506182618 62 252 5.0 14.0 0.00 0.00 0.00 1 1004.2
20260506182112 62 275 5.0 14.0 0.00 0.00 0.00 1 1004.2
20260506181605 62 232 5.0 13.0 0.00 0.00 0.00 1 1004.3
20260506181100 63 254 4.0 11.0 0.00 0.00 0.00 1 1004.3
20260506180757 63 237 5.0 12.0 0.00 0.00 0.00 1 1004.3
20260506180639 63 196 3.0 11.0 0.00 0.00 0.00 1 1004.3
20260506175543 63 229 4.0 12.0 0.00 0.00 0.00 1 1004.4
20260506175036 63 250 4.0 15.0 0.00 0.00 0.00 1 1004.3
20260506174530 63 232 4.0 15.0 0.00 0.00 0.00 1 1004.4
20260506174024 63 231 3.0 10.0 0.00 0.00 0.00 1 1004.3
20260506173518 63 228 1.0 7.0 0.00 0.00 0.00 1 1004.2
20260506173235 63 221 1.0 6.0 0.00 0.00 0.00 1 1004.2
20260506172505 63 219 2.0 7.0 0.00 0.00 0.00 1 1004.2
20260506172000 63 217 2.0 7.0 0.00 0.00 0.00 1 1004.3
20260506171454 63 219 2.0 7.0 0.00 0.00 0.00 1 1004.4
20260506170948 63 223 1.0 7.0 0.00 0.00 0.00 1 1004.3
20260506170442 63 249 0.0 5.0 0.00 0.00 0.00 1 1004.3
20260506165936 63 253 1.0 6.0 0.00 0.00 0.00 1 1004.4
20260506165430 63 254 1.0 6.0 0.00 0.00 0.00 1 1004.4
20260506165146 63 256 1.0 6.0 0.00 0.00 0.00 1 1004.6
20260506164417 63 257 1.0 6.0 0.00 0.00 0.00 1 1004.7
20260506163916 63 266 1.0 6.0 0.00 0.00 0.00 1 1004.8
20260506163416 63 207 0.0 6.0 0.00 0.00 0.00 1 1004.8
20260506162914 63 204 0.0 6.0 0.00 0.00 0.00 1 1004.9
20260506162412 63 213 0.0 4.0 0.00 0.00 0.00 1 1005.2
20260506161912 64 213 0.0 4.0 0.00 0.00 0.00 1 1005.3
20260506161412 64 215 0.0 0.0 0.00 0.00 0.00 1 1005.4
20260506160910 64 215 0.0 0.0 0.00 0.00 0.00 1 1005.4
20260506160410 64 215 0.0 0.0 0.00 0.00 0.00 1 1005.5
20260506155910 64 215 0.0 0.0 0.00 0.00 0.00 1 1005.5
20260506155633 64 215 0.0 0.0 0.00 0.00 0.00 1 1005.5
20260506154908 64 215 0.0 0.0 0.00 0.00 0.00 1 1005.5
20260506154408 64 215 0.0 0.0 0.00 0.00 0.00 1 1005.5
20260506153908 64 215 0.0 0.0 0.00 0.00 0.00 1 1005.4
20260506153408 64 206 0.0 0.0 0.00 0.00 0.00 1 1005.5
20260506152909 65 206 0.0 0.0 0.00 0.00 0.00 1 1005.5
20260506152408 65 259 0.0 0.0 0.00 0.00 0.00 1 1005.6
20260506151906 65 259 0.0 0.0 0.00 0.00 0.00 1 1005.6
20260506151404 65 259 0.0 0.0 0.00 0.00 0.00 1 1005.7
20260506150904 65 259 0.0 0.0 0.00 0.00 0.00 1 1005.7
20260506150358 65 259 0.0 0.0 0.00 0.00 0.00 1 1005.7
20260506145852 65 259 0.0 0.0 0.00 0.00 0.00 1 1005.7
20260506145346 65 259 0.0 4.0 0.00 0.00 0.00 1 1005.7
20260506144839 65 259 0.0 4.0 0.00 0.00 0.00 1 1005.7
20260506144334 65 225 0.0 2.0 0.00 0.00 0.00 1 1005.7
20260506143828 65 224 0.0 0.0 0.00 0.00 0.00 1 1005.7
20260506143322 66 224 0.0 4.0 0.00 0.00 0.00 1 1005.9
20260506143257 66 250 0.0 4.0 0.00 0.00 0.00 1 1005.8
20260506142309 67 259 0.0 2.0 0.00 0.00 0.00 1 1005.9
20260506141806 67 298 0.0 7.0 0.00 0.00 0.00 1 1006.0
20260506141306 67 289 1.0 12.0 0.00 0.00 0.00 1 1005.9
20260506140806 67 263 1.0 12.0 0.00 0.00 0.00 1 1006.1
20260506140304 67 251 1.0 8.0 0.00 0.00 0.00 1 1006.0
20260506135802 67 213 1.0 10.0 0.00 0.00 0.00 1 1006.0
20260506135305 67 265 2.0 16.0 0.00 0.00 0.00 1 1006.0
20260506134802 67 240 2.0 16.0 0.00 0.00 0.00 1 1006.1
20260506134520 67 251 2.0 13.0 0.00 0.00 0.00 1 1005.9
20260506133802 67 223 2.0 13.0 0.00 0.00 0.00 1 1005.8
20260506133302 68 221 1.0 11.0 0.00 0.00 0.00 3 1005.6
20260506132800 68 232 1.0 11.0 0.00 0.00 0.00 1 1005.7
20260506132300 68 263 1.0 10.0 0.00 0.00 0.00 1 1005.5
20260506131758 67 238 1.0 9.0 0.00 0.00 0.00 1 1005.4
20260506131257 67 201 1.0 10.0 0.00 0.00 0.00 1 1005.4
20260506130758 67 241 0.0 10.0 0.00 0.00 0.00 1 1005.4
20260506130519 67 226 0.0 7.0 0.00 0.00 0.00 1 1005.4
20260506125752 67 236 1.0 10.0 0.00 0.00 0.00 1 1005.3
20260506125250 67 240 1.0 10.0 0.00 0.00 0.00 1 1005.3
20260506124750 67 249 1.0 10.0 0.00 0.00 0.00 1 1005.5
20260506124250 67 174 0.0 7.0 0.00 0.00 0.00 1 1005.6
20260506123750 67 259 0.0 5.0 0.00 0.00 0.00 1 1005.7
20260506123250 66 213 0.0 7.0 0.00 0.00 0.00 1 1005.6
20260506122750 66 238 0.0 7.0 0.00 0.00 0.00 1 1005.7
20260506122250 66 207 0.0 4.0 0.00 0.00 0.00 1 1005.7
20260506121749 66 202 0.0 4.0 0.00 0.00 0.00 1 1005.6
20260506121250 66 202 0.0 6.0 0.00 0.00 0.00 1 1005.7
20260506121006 66 234 0.0 6.0 0.00 0.00 0.00 1 1005.8
20260506120245 66 198 0.0 6.0 0.00 0.00 0.00 1 1005.7
20260506120009 66 198 0.0 6.0 0.00 0.00 0.00 1 1005.7
20260506115242 66 220 0.0 4.0 0.00 0.00 0.00 1 1005.9
20260506114742 66 211 0.0 8.0 0.00 0.00 0.00 1 1005.9
20260506114242 66 229 1.0 10.0 0.00 0.00 0.00 1 1005.9
20260506113742 65 243 0.0 10.0 0.00 0.00 0.00 1 1005.7
20260506113242 65 198 0.0 7.0 0.00 0.00 0.00 1 1005.4
20260506112742 65 234 0.0 7.0 0.00 0.00 0.00 1 1005.5
20260506112241 65 245 0.0 6.0 0.00 0.00 0.00 1 1005.6
20260506111741 65 242 0.0 2.0 0.00 0.00 0.00 1 1005.6
20260506111242 65 242 0.0 5.0 0.00 0.00 0.00 1 1005.5
20260506110737 65 244 0.0 8.0 0.00 0.00 0.00 1 1005.5
20260506110238 65 194 0.0 8.0 0.00 0.00 0.00 1 1005.6
20260506105738 65 205 0.0 1.0 0.00 0.00 0.00 1 1005.5
20260506105238 65 240 0.0 2.0 0.00 0.00 0.00 1 1005.5
20260506104737 65 242 0.0 2.0 0.00 0.00 0.00 1 1005.5
20260506104237 65 243 0.0 2.0 0.00 0.00 0.00 1 1005.5
20260506103957 65 244 0.0 7.0 0.00 0.00 0.00 1 1005.5
20260506103456 65 205 0.0 7.0 0.00 0.00 0.00 1 1005.6
20260506102737 65 226 0.0 2.0 0.00 0.00 0.00 1 1005.4
20260506102237 65 250 0.0 1.0 0.00 0.00 0.00 1 1005.4
20260506101738 65 178 0.0 5.0 0.00 0.00 0.00 1 1005.3
20260506101505 64 224 0.0 8.0 0.00 0.00 0.00 1 1005.4
20260506100738 64 221 0.0 8.0 0.00 0.00 0.00 1 1005.2
20260506100238 64 220 0.0 5.0 0.00 0.00 0.00 1 1005.3
20260506095737 64 223 0.0 5.0 0.00 0.00 0.00 1 1005.3
20260506095505 64 226 0.0 2.0 0.00 0.00 0.00 1 1005.1
20260506094738 64 226 0.0 2.0 0.00 0.00 0.00 1 1005.3
20260506094237 64 220 0.0 0.0 0.00 0.00 0.00 1 1005.4
20260506093735 64 232 0.0 1.0 0.00 0.00 0.00 1 1005.5
20260506093456 64 233 0.0 4.0 0.00 0.00 0.00 1 1005.5
20260506092736 64 234 0.0 4.0 0.00 0.00 0.00 1 1005.3
20260506092236 63 234 0.0 0.0 0.00 0.00 0.00 1 1005.3
20260506091736 63 236 0.0 0.0 0.00 0.00 0.00 3 1005.2
20260506091234 63 230 0.0 0.0 0.00 0.00 0.00 5 1005.2
20260506090734 63 225 0.0 0.0 0.00 0.00 0.00 8 1005.2
20260506090234 63 225 0.0 5.0 0.00 0.00 0.00 11 1005.3
20260506090215 64 232 0.0 5.0 0.00 0.00 0.00 14 1005.3
20260506085233 64 232 0.0 5.0 0.00 0.00 0.00 15 1005.3
20260506084730 64 234 0.0 0.0 0.00 0.00 0.00 18 1005.4
20260506084230 64 234 0.0 0.0 0.00 0.00 0.00 21 1005.3
20260506083730 64 234 0.0 0.0 0.00 0.00 0.00 25 1005.4
20260506083230 65 234 0.0 0.0 0.00 0.00 0.00 30 1005.5
20260506082728 66 234 0.0 0.0 0.00 0.00 0.00 34 1005.5
20260506082221 66 234 0.0 0.0 0.00 0.00 0.00 38 1005.6
20260506081714 67 230 0.0 0.0 0.00 0.00 0.00 41 1005.5
20260506081209 67 230 0.0 7.0 0.00 0.00 0.00 42 1005.6
20260506080703 67 234 0.0 7.0 0.00 0.00 0.00 43 1005.6
20260506080157 67 245 0.0 6.0 0.00 0.00 0.00 44 1005.5
20260506073129 67 236 0.0 5.0 0.00 0.00 0.00 45 1005.5
20260506072629 67 234 0.0 2.0 0.00 0.00 0.00 45 1005.5
20260506072129 67 242 0.0 5.0 0.00 0.00 0.00 45 1005.5
20260506071628 67 237 0.0 5.0 0.00 0.00 0.00 45 1005.5
20260506071127 67 245 0.0 1.0 0.00 0.00 0.00 46 1005.5
20260506070628 68 257 0.0 4.0 0.00 0.00 0.00 46 1005.6
20260506070128 68 231 0.0 4.0 0.00 0.00 0.00 46 1005.7
20260506062125 68 225 0.0 0.0 0.00 0.00 0.00 48 1006.1
20260506061619 68 225 0.0 4.0 0.00 0.00 0.00 48 1006.1
20260506061113 68 226 0.0 4.0 0.00 0.00 0.00 48 1006.1
20260506060607 68 222 0.0 2.0 0.00 0.00 0.00 48 1006.1
20260506051027 69 234 0.0 4.0 0.00 0.00 0.00 51 1006.2
20260506050527 69 245 0.0 4.0 0.00 0.00 0.00 51 1006.4
20260506045026 69 244 0.0 1.0 0.00 0.00 0.00 51 1006.3
20260506044526 69 242 0.0 1.0 0.00 0.00 0.00 51 1006.3
20260506044023 69 243 0.0 1.0 0.00 0.00 0.00 51 1006.3
20260506043521 69 244 0.0 1.0 0.00 0.00 0.00 51 1006.3
20260506043021 69 244 0.0 1.0 0.00 0.00 0.00 51 1006.3
20260506042521 69 244 0.0 7.0 0.00 0.00 0.00 51 1006.3
20260506042019 69 246 0.0 7.0 0.00 0.00 0.00 51 1006.2
20260506041517 69 223 0.0 5.0 0.00 0.00 0.00 51 1006.2
20260506041018 69 222 0.0 0.0 0.00 0.00 0.00 52 1006.1
20260506040517 69 223 0.0 1.0 0.00 0.00 0.00 52 1006.1
20260506040017 69 226 0.0 1.0 0.00 0.00 0.00 51 1006.0
20260506035511 69 222 0.0 0.0 0.00 0.00 0.00 52 1006.1
20260506035005 69 222 0.0 0.0 0.00 0.00 0.00 51 1006.1
20260506034500 69 222 0.0 0.0 0.00 0.00 0.00 51 1006.1
20260506033953 70 222 0.0 0.0 0.00 0.00 0.00 51 1006.1
20260506033707 70 223 0.0 1.0 0.00 0.00 0.00 50 1006.1
20260506033205 70 223 0.0 2.0 0.00 0.00 0.00 50 1005.9
20260506032435 71 223 0.0 6.0 0.00 0.00 0.00 50 1006.0
20260506031929 71 223 0.0 6.0 0.00 0.00 0.00 49 1005.9
20260506031423 71 223 0.0 8.0 0.00 0.00 0.00 48 1006.0
20260506030917 71 223 0.0 8.0 0.00 0.00 0.00 48 1006.0
20260506030411 71 233 0.0 5.0 0.00 0.00 0.00 48 1005.9
20260506030123 72 233 0.0 5.0 0.00 0.00 0.00 48 1006.0
20260506025359 72 226 0.0 0.0 0.00 0.00 0.00 46 1005.9
20260506025115 73 225 0.0 7.0 0.00 0.00 0.00 45 1006.0
20260506024347 73 216 0.0 7.0 0.00 0.00 0.00 45 1006.0
20260506023841 73 253 0.0 4.0 0.00 0.00 0.00 44 1005.9
20260506023336 73 263 0.0 4.0 0.00 0.00 0.00 45 1005.9
20260506022829 73 259 0.0 4.0 0.00 0.00 0.00 45 1005.9
20260506022322 73 200 0.0 1.0 0.00 0.00 0.00 44 1005.8
20260506021817 73 246 0.0 0.0 0.00 0.00 0.00 44 1005.8
20260506021311 73 246 0.0 0.0 0.00 0.00 0.00 44 1005.8
20260506020804 73 238 0.0 0.0 0.00 0.00 0.00 43 1005.7
20260506020258 74 237 0.0 0.0 0.00 0.00 0.00 43 1005.6
20260506015753 74 236 0.0 2.0 0.00 0.00 0.00 42 1005.6
20260506015247 74 221 0.0 2.0 0.00 0.00 0.00 42 1005.5
20260506014741 73 241 0.0 6.0 0.00 0.00 0.00 42 1005.5
20260506014235 73 243 0.0 6.0 0.00 0.00 0.00 43 1005.4
20260506013729 74 238 0.0 5.0 0.00 0.00 0.00 44 1005.4
20260506013223 74 238 0.0 1.0 0.00 0.00 0.00 42 1005.3
20260506012942 74 238 0.0 1.0 0.00 0.00 0.00 43 1005.3